Home   Weather   Ahaus   Past weeks

Flag for Germany Past Weather in Ahaus, North Rhine-Westphalia, Germany — Yesterday and Last 2 Weeks

Now
45 °F

Overcast.


Feels Like: 41 °F
Forecast: 36 / 42 °F
Wind: 7 mph from Southwest

Location: Twenthe

Current Time: Dec 7, 2016 at 9:39:19 pm

Latest Report: Dec 7, 2016 at 8:00 pm


Visibility: 17 mi

Pressure: 30.38 "Hg

Humidity: 72%

Dew Point: 36 °F

Location of AhausLocation

Past Weather in Ahaus — Graph

°F

Ahaus Temperature Yesterday

Maximum temperature yesterday: 40 °F (at 2:00 pm)
Minimum temperature yesterday: 19 °F (at 7:00 am)
Average temperature yesterday: 27 °F

High & Low Weather Summary for the Past Weeks

 TemperatureHumidityPressure
High54 °F (Nov 23, 2:00 pm)100% (Nov 23, 6:00 am)30.61 "Hg (Nov 23, 6:00 am)
Low18 °F (Nov 29, 8:00 am)51% (Dec 5, 2:00 pm)29.95 "Hg (Nov 22, 8:00 pm)
Average35 °F88%30.30 "Hg
* Reported Nov 22 8:00 pm — Dec 7 8:00 pm, Ahaus, Weather by CustomWeather, © 2016

Note: Actual official high and low records may vary slightly from our data, if they occured in-between our weather recording intervals... More about our weather records

Advertising

Ahaus Weather History for the Previous 24 Hours

Scroll right to see more
 ConditionsComfort  
Time TempWeatherWind HumidityBarometerVisibility
8:00 pm
Wed, Dec 7
45 °FOvercast.7 mph72%30.38 "Hg17 mi
7:00 pm45 °FOvercast.6 mph73%30.37 "Hg19 mi
6:00 pm45 °FOvercast.7 mph73%30.37 "Hg17 mi
5:00 pm45 °FOvercast.6 mph73%30.38 "Hg19 mi
4:00 pm46 °FOvercast.6 mph71%30.37 "Hg19 mi
3:00 pm45 °FOvercast.6 mph71%30.38 "Hg18 mi
2:00 pm46 °FOvercast.7 mph72%30.38 "Hg19 mi
1:00 pm46 °FOvercast.6 mph70%30.39 "Hg16 mi
12:00 pm43 °FOvercast.6 mph74%30.39 "Hg19 mi
11:00 am42 °FOvercast.6 mph75%30.42 "Hg18 mi
10:00 am40 °FSprinkles. Overcast.6 mph77%30.42 "Hg13 mi
9:00 am40 °FOvercast.6 mph78%30.40 "Hg13 mi
8:00 am38 °FOvercast.5 mph80%30.40 "Hg12 mi
7:00 am38 °FOvercast.5 mph81%30.41 "Hg11 mi
6:00 am37 °FOvercast.3 mph84%30.41 "Hg8 mi
4:00 am34 °FOvercast.3 mph90%30.45 "Hg5 mi
3:00 am33 °FFog.3 mph91%30.45 "Hg4 mi
2:00 am34 °FFog.3 mph88%30.44 "Hg5 mi
1:00 am33 °FFog.3 mph89%30.46 "Hg4 mi
Weather by CustomWeather, © 2016

See weather overviewHow to use our weather pages